RH
5 5 5 5 6 7 7 7 7 7 7 7 7 7 7 7 6 6 6 6 5 5 5 4 4 4 4 4 4 4 4 4 4 5 5 5 5 5 4 4 4 4 3 4 3 3 3 3 3 3 2 2 2 2 2 2 2 2 2 2 2 2 2 2 2 2 1 1 1 1 1 1 1 1
4 4 5 5 5 6 6 6 7 7 7 7 7 7 7 7 7 6 6 6 6 6 5 5 4 4 4 3 4 4 4 4 4 5 5 5 5 5 5 4 4 4 4 4 4 4 4 3 3 3 2 2 2 2 2 2 2 2 2 2 2 2 2 2 1 1 2 1 1 1 1 1 1 1
4 4 4 4 5 5 6 6 6 6 6 6 6 6 7 7 7 7 6 6 6 7 6 6 5 4 4 3 3 4 4 4 4 4 5 5 5 5 5 5 5 4 4 4 4 4 4 4 3 3 3 2 2 2 2 2 2 2 2 2 2 2 2 1 2 1 1 2 1 2 1 1 2 1
3 3 4 4 4 4 5 5 6 6 6 6 6 6 6 7 7 7 6 6 6 6 7 7 6 5 4 4 4 4 3 4 4 4 4 4 5 5 5 5 5 4 5 4 4 4 4 4 3 3 3 2 2 2 2 2 2 2 2 2 2 2 2 1 2 1 1 1 1 2 1 1 1 1
3 3 3 3 4 4 4 5 5 5 5 5 5 6 6 6 7 7 7 7 6 6 7 7 6 5 5 4 4 4 4 4 4 4 4 4 5 5 5 5 4 4 5 4 4 4 4 4 3 3 3 2 2 2 2 2 2 2 3 2 2 2 2 2 1 1 1 1 1 1 1 1 1 1
2 3 3 3 3 4 4 4 4 4 5 5 5 5 5 6 6 6 6 6 6 6 6 7 7 6 5 5 5 4 4 4 4 4 4 4 4 4 5 5 4 4 5 4 4 4 4 3 3 3 3 3 3 2 2 3 2 3 3 2 2 2 2 2 1 2 1 1 2 1 1 2 1 1
2 2 2 2 3 3 3 3 3 4 4 4 5 4 5 5 5 6 6 6 6 7 6 6 7 6 6 6 5 4 4 4 4 4 3 4 4 4 5 4 5 5 4 4 4 3 4 3 3 3 3 3 3 2 3 3 3 3 3 2 2 2 2 2 1 2 2 1 2 1 1 2 1 1
2 2 2 2 2 2 3 3 3 3 3 4 4 4 4 4 5 5 5 5 6 6 6 6 6 6 6 5 5 5 5 5 4 4 3 4 4 4 5 4 5 5 4 4 4 3 3 3 3 3 3 3 3 2 3 3 3 3 2 2 2 1 2 2 1 2 2 1 1 1 1 1 1 1
2 2 2 2 2 2 2 2 3 3 3 3 3 3 4 4 4 4 5 5 5 5 6 6 6 6 6 5 5 5 5 5 4 4 4 4 4 4 5 5 5 5 4 4 3 3 3 3 3 3 3 3 3 3 3 3 3 3 2 2 2 2 2 2 2 2 1 2 1 1 1 1 1 1
2 2 2 2 2 2 2 2 2 3 3 3 3 3 3 3 4 4 4 4 4 4 5 5 5 5 5 5 6 5 5 5 4 4 4 4 5 5 4 5 4 4 4 4 3 3 3 3 3 3 3 3 3 3 3 3 3 2 2 2 2 2 2 1 2 1 1 2 1 2 2 1 2 2
2 2 2 2 2 2 2 2 2 2 2 2 3 3 3 3 3 4 4 4 4 4 5 5 5 5 5 5 6 5 5 5 5 5 5 5 5 5 5 5 4 4 3 3 3 3 3 3 3 3 3 3 3 3 3 3 3 2 2 2 2 2 2 2 2 2 1 2 2 2 2 1 2 2
2 2 2 2 2 2 2 2 2 2 2 2 2 2 3 3 3 3 3 3 4 4 5 5 5 4 5 5 5 5 5 5 5 5 5 5 5 6 5 5 4 3 3 3 3 3 3 3 3 3 3 3 3 3 3 2 2 2 2 2 2 2 2 1 2 2 2 2 2 2 2 2 1 1
2 2 2 2 2 2 2 2 2 2 2 2 2 2 2 3 3 3 3 3 3 4 4 4 5 4 5 5 5 5 5 4 5 5 5 6 6 6 6 5 4 3 3 3 3 3 3 3 3 3 3 3 3 2 3 2 2 2 2 2 2 2 2 2 2 2 2 2 2 2 2 1 1 1
2 2 2 2 2 2 2 2 2 2 2 2 2 2 2 2 3 2 2 3 3 4 4 4 4 4 4 5 4 4 5 4 5 5 5 6 6 6 6 5 4 3 2 3 3 3 3 2 3 3 3 4 3 2 2 2 2 2 2 2 2 1 2 2 2 2 2 2 2 1 2 1 1 1
2 2 2 2 2 2 2 2 2 2 2 2 2 2 2 2 2 2 2 3 3 3 4 3 4 4 4 4 4 4 4 4 5 6 5 6 5 5 5 5 4 3 2 3 3 3 3 2 3 4 3 3 2 2 2 2 2 2 2 2 2 2 2 2 2 2 2 2 2 1 1 1 1 1
2 2 3 3 2 3 2 2 2 2 2 3 2 2 3 2 3 3 2 3 3 3 3 3 3 3 3 3 3 3 4 4 5 5 5 5 5 4 5 4 4 3 2 2 3 3 3 3 3 3 3 3 2 2 2 2 2 2 1 2 2 2 2 2 2 2 1 1 2 1 1 2 0 1
2 2 3 3 3 3 3 2 3 2 2 3 2 2 3 2 3 3 2 3 3 2 3 3 3 3 3 3 3 3 4 4 4 5 5 5 4 4 4 4 4 3 3 2 3 3 4 4 3 3 3 2 2 2 2 2 2 2 2 2 2 2 2 2 1 2 2 1 2 1 1 2 1 1
2 2 2 3 2 3 3 3 3 2 2 2 2 2 2 2 2 2 2 2 2 2 2 2 2 3 3 3 3 3 3 4 4 4 4 4 4 4 4 4 4 3 3 3 3 4 5 4 2 3 3 2 2 2 2 2 2 2 2 2 2 2 1 2 1 1 2 1 1 2 1 1 1 1
2 2 2 3 2 2 3 3 3 3 2 2 2 2 2 2 2 2 2 2 2 2 2 2 2 2 2 3 3 3 3 3 4 4 4 4 4 4 4 4 4 3 3 3 3 4 5 3 2 3 3 2 3 2 2 2 2 2 2 1 2 2 1 2 2 1 2 1 1 1 1 1 1 1
2 2 2 2 2 2 3 2 2 3 3 3 3 2 3 2 2 2 2 2 2 2 2 2 2 2 2 3 3 3 3 4 4 3 3 3 4 4 4 4 4 4 3 3 3 4 4 3 2 3 3 2 3 2 2 2 2 2 2 1 1 2 1 2 2 1 1 1 1 1 1 1 1 1
2 2 2 2 2 2 2 2 3 3 3 3 3 3 3 3 2 2 2 2 2 2 2 2 2 2 2 3 3 3 3 3 3 3 3 4 4 4 5 5 5 5 4 3 3 4 4 4 3 3 3 3 3 3 2 2 2 1 1 2 1 2 2 1 1 1 1 1 1 1 1 1 1 1
2 2 2 2 2 2 2 2 3 3 3 3 3 3 3 2 2 2 2 2 2 2 2 2 2 2 2 2 3 3 3 3 3 4 4 4 5 5 5 6 5 5 3 3 3 3 3 3 3 2 3 3 3 3 2 2 2 1 1 2 1 1 2 1 1 1 1 1 1 1 1 1 1 1
2 2 2 2 2 2 2 2 2 2 2 3 2 2 2 2 2 2 2 2 2 2 2 2 2 2 2 2 3 3 3 4 4 4 5 5 5 5 5 6 5 5 4 3 3 3 3 3 3 2 3 4 3 3 2 2 2 1 1 2 2 1 1 1 1 1 1 1 1 1 1 1 1 1
2 2 2 2 2 2 2 2 2 2 2 2 2 2 2 2 2 2 2 2 2 2 2 2 2 3 3 3 3 3 4 4 4 5 5 5 5 5 5 5 5 4 4 3 3 3 3 3 3 2 2 3 3 3 3 2 1 1 1 1 1 2 1 1 1 1 1 1 1 1 1 1 1 1
2 2 2 2 2 2 2 2 2 2 2 2 2 2 2 2 2 2 2 2 3 2 3 3 3 3 3 3 4 4 5 5 5 5 6 5 5 5 4 5 5 4 4 4 3 4 4 3 2 2 2 2 2 3 3 2 2 1 1 1 1 1 2 1 1 1 1 1 1 1 1 1 1 1
2 2 2 2 2 2 2 2 2 2 2 2 2 2 3 2 3 3 2 3 3 3 3 3 3 4 4 4 4 5 5 5 5 5 6 5 5 5 5 4 4 4 4 4 4 4 4 3 2 2 2 2 2 2 2 2 2 1 1 1 1 1 1 1 1 1 1 1 1 1 1 1 1 1
2 2 2 2 2 2 2 2 2 2 2 3 3 3 3 3 3 3 3 3 3 3 3 4 3 4 4 4 5 5 5 5 5 5 6 5 5 5 5 4 4 5 4 4 4 3 3 3 2 2 2 2 2 2 2 2 2 2 1 1 1 1 1 1 1 1 1 1 1 1 1 1 1 1
2 2 2 2 2 2 2 2 2 2 2 3 3 3 3 3 3 3 3 3 4 3 4 4 4 4 5 5 5 5 5 5 6 5 5 6 5 5 5 5 5 5 5 4 3 3 3 3 3 2 2 2 2 2 2 2 2 2 2 2 1 1 1 1 1 1 1 1 1 1 1 1 1 1
2 2 2 2 2 2 2 2 2 2 3 3 3 3 3 3 3 3 3 4 4 4 4 4 5 5 5 5 5 5 5 5 6 6 6 5 6 5 5 6 5 5 4 3 3 3 3 3 3 2 2 2 2 2 2 2 2 2 1 2 1 1 1 1 1 1 1 1 1 1 1 1 1 1
2 2 2 2 2 2 2 2 3 3 3 3 3 3 3 3 4 4 4 4 4 4 5 5 5 5 5 5 6 5 6 6 5 6 6 6 7 6 6 5 4 4 4 4 4 4 3 3 3 3 2 2 2 2 2 2 2 2 1 1 1 1 1 1 1 1 1 1 1 1 1 1 1 1
2 3 2 2 3 3 3 3 3 3 3 3 3 4 3 4 4 4 4 5 4 5 5 5 5 6 6 6 6 6 6 7 7 7 7 7 7 6 4 4 4 3 4 4 4 4 4 3 3 3 3 3 2 2 2 2 2 2 1 1 1 1 1 1 1 1 1 1 1 1 1 1 1 1
2 3 3 3 3 3 3 3 3 3 4 3 4 4 4 4 5 4 5 5 5 5 6 6 6 7 6 7 7 7 8 8 8 7 7 6 5 5 4 4 4 4 4 4 5 5 5 4 4 4 3 3 2 2 2 2 1 2 1 1 1 1 1 1 1 1 1 1 1 1 1 1 1 1
3 3 3 3 3 3 3 4 4 4 4 4 4 5 5 5 5 5 5 6 6 6 7 7 7 7 8 8 8 8 8 8 7 6 5 5 4 4 4 5 4 4 4 3 4 4 5 4 4 4 4 3 3 2 2 1 1 1 1 1 1 1 1 1 1 1 1 1 1 1 1 1 1 1
3 3 3 3 4 4 4 4 4 4 5 5 5 5 5 6 6 6 6 7 7 7 8 8 9 9 9 9 8 8 7 6 5 5 5 5 5 5 4 4 4 4 4 3 3 3 4 4 4 4 4 4 3 2 2 1 1 1 1 1 1 1 1 1 1 1 1 1 1 1 1 1 1 1
4 4 4 4 4 5 5 5 5 5 6 6 6 6 7 7 7 7 8 8 8 9 9 9 9 9 8 7 7 6 6 5 5 5 5 5 5 5 4 4 4 4 4 4 3 3 3 3 3 3 3 3 3 3 2 1 1 1 1 1 1 1 1 1 1 1 1 1 1 1 1 1 1 1
5 5 5 5 5 6 6 6 6 6 6 7 7 7 8 8 9 9 9 9 9 9 8 8 8 7 7 6 6 6 6 6 7 7 6 6 5 5 4 4 4 4 4 4 3 3 3 4 3 3 3 2 2 2 2 1 1 1 1 1 1 1 1 1 1 1 1 1 1 1 1 1 1 1
5 6 6 6 6 7 7 7 8 8 8 9 9 9 9 9 9 9 9 8 8 7 7 7 7 7 7 7 7 8 8 7 7 6 6 5 5 4 4 5 5 4 4 4 4 4 3 3 3 3 3 2 2 2 2 2 2 1 1 1 1 1 1 1 1 1 1 1 1 1 1 1 1 1
7 7 7 7 8 8 9 9 9 9 9 9 9 9 9 8 8 8 7 7 7 7 7 7 8 8 9 9 9 9 8 7 6 6 5 5 5 5 5 5 5 5 4 4 4 4 4 4 3 3 3 2 2 2 2 1 2 1 1 1 1 1 1 1 1 1 1 1 1 1 1 1 1 1
8 8 8 8 9 9 9 9 8 8 8 8 7 7 7 7 7 7 7 7 7 8 9 10 10 11 10 10 9 8 7 6 6 5 5 5 5 5 5 5 4 4 4 4 5 4 4 4 3 3 3 2 2 2 2 2 2 2 1 1 1 1 1 1 1 1 1 1 1 1 1 1 1 1
8 8 8 8 8 8 7 7 7 7 7 7 7 7 7 7 7 8 9 10 11 12 12 12 12 11 10 9 8 7 7 6 6 6 6 6 5 5 5 4 4 4 4 4 4 4 4 4 3 3 3 3 2 2 2 2 2 1 1 1 1 1 1 1 1 1 1 1 1 1 1 1 1 1
7 7 7 7 7 7 7 7 7 7 7 7 7 7 8 9 10 12 13 14 14 14 13 12 11 10 9 8 7 7 7 7 6 6 6 6 6 5 5 4 4 4 4 4 4 4 4 4 3 3 3 3 2 2 2 2 2 2 1 1 1 1 1 1 1 1 1 1 1 1 1 1 1 2
7 7 7 7 7 7 7 7 7 7 7 7 9 10 13 14 15 16 16 15 14 13 11 10 9 9 8 8 7 7 7 7 7 6 6 5 5 5 5 5 4 4 4 4 4 4 4 4 3 3 3 3 2 2 2 2 2 2 1 1 1 1 1 1 1 1 1 1 1 1 1 1 2 2
7 7 7 7 7 7 7 7 7 8 10 13 15 17 18 18 17 16 15 13 12 11 10 9 9 8 8 8 8 8 8 7 7 6 6 5 5 5 5 5 5 4 4 4 4 4 4 3 4 3 3 3 2 2 2 2 2 2 2 1 1 1 1 1 1 1 1 1 1 1 2 2 2 2
7 7 7 7 7 7 8 10 13 16 18 20 20 20 18 17 15 14 13 12 11 11 10 10 9 9 9 9 8 8 8 7 7 6 6 5 5 5 5 5 5 4 4 4 4 4 4 3 3 3 3 3 2 2 2 2 2 2 2 2 1 1 1 1 1 1 1 1 1 2 2 2 2 2
7 7 7 8 9 12 15 19 21 22 22 20 19 17 16 15 13 13 12 11 11 11 10 10 10 10 9 9 9 8 8 7 7 6 6 5 5 5 5 5 4 4 4 4 4 4 4 4 3 3 3 3 3 2 2 2 2 2 2 1 1 2 1 1 1 1 1 2 2 2 2 2 2 2
Wind_Speed
113 113 112 111 111 111 112 112 112 113 112 111 111 110 109 109 109 108 107 107 108 107 107 107 107 105 104 104 104 104 103 103 103 103 103 103 103 104 105 105 105 106 107 108 109 110 112 113 114 115 116 116 116 115 114 113 113 113 113 114 114 115 115 115 115 115 115 114 113 113 114 114 114 114
111 112 112 111 111 111 112 112 113 113 113 112 112 111 110 110 109 108 107 107 107 107 107 106 105 104 103 102 101 101 101 101 101 101 101 101 101 102 102 103 103 104 104 105 106 107 109 110 112 113 114 114 113 113 112 111 111 111 111 112 113 113 113 113 113 113 113 112 111 111 111 111 112 112
107 109 110 109 109 110 111 112 113 114 113 113 112 112 111 110 110 109 108 107 107 107 107 107 106 104 103 101 99 98 97 98 98 99 99 98 99 99 100 101 102 101 101 102 103 104 106 108 109 111 111 111 110 110 109 109 108 108 109 110 111 112 112 112 111 110 109 109 109 109 108 108 109 109
103 105 106 106 107 108 109 111 112 113 113 113 112 111 111 110 110 110 108 107 107 107 107 108 108 106 104 101 99 97 96 96 96 96 96 96 96 97 98 99 99 99 99 99 100 102 103 105 106 108 108 108 107 107 106 106 105 106 106 108 109 110 110 110 109 107 106 105 105 105 105 105 105 106
98 100 101 102 104 106 107 108 110 111 112 112 111 111 110 110 110 110 109 108 108 108 108 108 108 107 105 102 100 98 97 95 95 94 94 93 93 94 96 96 97 96 96 97 98 99 101 102 103 104 105 105 105 104 103 102 102 103 104 106 107 108 108 108 106 105 103 102 102 102 102 102 102 102
93 95 96 96 100 103 104 105 107 109 110 111 110 110 109 109 109 109 109 108 108 108 108 108 108 107 106 104 102 100 98 96 94 93 92 91 91 92 93 94 94 94 94 95 96 97 98 99 100 101 102 102 102 100 99 98 99 100 102 105 106 106 106 105 104 103 101 100 99 99 99 99 99 99
88 90 91 91 94 98 100 101 102 105 107 108 109 108 108 108 107 107 108 107 107 108 107 107 107 107 106 105 103 101 99 98 96 93 90 89 90 91 92 92 92 93 93 94 94 94 95 96 96 97 98 99 98 97 96 95 97 99 102 104 104 103 103 102 101 99 98 97 97 96 96 96 96 97
85 87 87 88 89 92 95 96 97 99 102 104 105 106 106 105 105 105 106 106 106 106 106 105 106 106 106 105 104 102 101 100 97 93 90 89 90 90 92 92 93 93 93 92 92 92 92 92 93 94 95 95 95 93 93 94 96 99 101 102 101 100 98 98 97 96 95 95 94 94 93 93 93 95
82 83 84 85 86 87 89 90 90 92 95 98 100 101 102 102 102 102 104 104 104 103 103 103 104 105 106 106 104 103 103 101 97 93 90 90 90 91 92 93 94 93 92 91 91 90 90 90 90 91 91 91 91 90 91 93 96 99 100 99 97 96 96 95 94 94 93 92 91 91 90 90 90 92
78 79 80 81 82 83 84 84 85 88 90 93 94 96 96 97 97 99 100 101 101 100 100 101 102 103 105 105 105 104 103 101 97 94 92 92 92 93 94 94 94 93 91 90 89 89 88 88 88 87 88 88 87 88 90 94 97 98 98 96 95 94 94 93 93 92 91 90 89 88 88 88 89 91
74 75 77 78 79 79 79 80 81 84 86 88 89 90 91 92 94 95 96 96 96 96 97 99 100 101 102 104 104 103 102 100 97 94 94 94 94 95 96 95 94 91 90 89 88 87 86 86 86 85 85 84 85 87 90 94 96 97 96 95 93 92 92 91 91 90 88 87 87 87 87 88 90 92
69 71 73 75 76 76 77 77 78 80 82 84 85 85 87 89 90 91 91 91 91 92 94 96 97 98 99 101 102 102 100 98 96 94 94 95 96 97 97 96 94 91 88 86 86 85 85 84 84 83 82 82 84 88 91 93 95 95 94 92 91 90 90 89 88 87 86 86 86 87 88 90 91 92
65 66 68 70 72 74 74 74 75 75 76 78 80 81 83 85 87 87 87 86 86 88 91 93 94 94 95 97 99 99 98 95 94 93 94 95 96 98 97 96 94 90 87 85 84 83 83 82 82 81 80 83 86 88 89 91 91 91 90 90 89 89 88 86 85 85 85 86 87 88 90 91 92 92
63 64 65 66 68 70 71 71 71 71 72 73 75 77 79 81 83 84 83 82 83 85 88 90 90 90 91 93 95 95 93 92 91 91 93 94 95 96 96 95 93 89 85 83 82 82 82 81 79 79 81 85 87 87 86 87 87 87 87 87 87 86 85 84 84 84 85 86 88 89 91 92 93 92
61 61 62 62 63 65 66 67 68 68 69 70 71 73 75 76 78 79 79 79 81 83 86 87 87 87 88 90 91 90 88 88 88 89 91 92 93 93 93 93 93 88 82 79 79 80 81 79 78 79 83 86 86 84 83 85 85 86 86 85 83 82 82 82 83 84 86 87 88 90 91 92 92 90
58 58 59 61 61 62 63 64 65 65 66 68 70 71 72 74 75 75 76 78 79 82 84 84 83 84 85 87 86 85 84 84 85 87 89 90 90 90 90 91 91 86 80 76 76 78 80 79 79 81 84 84 82 81 81 83 84 85 84 82 80 79 80 81 82 83 84 86 87 89 91 92 91 88
56 56 58 60 60 60 61 62 62 63 64 66 69 70 71 72 72 73 74 76 78 79 80 80 80 81 82 82 82 81 80 81 83 86 87 87 87 87 88 87 86 83 77 73 72 74 79 82 81 81 83 81 79 80 81 82 83 83 81 78 78 79 80 80 80 81 82 85 87 88 90 90 89 86
53 53 55 57 59 58 58 59 61 62 63 64 65 67 68 69 70 71 72 74 75 75 76 76 76 77 78 78 78 77 77 77 81 84 85 85 83 83 83 83 81 79 74 70 68 71 80 84 80 78 81 80 78 79 81 82 82 79 77 77 77 78 79 78 79 80 81 83 85 86 88 88 87 84
49 49 51 54 55 56 57 59 61 60 59 61 62 63 64 66 67 69 70 71 71 71 71 71 72 73 74 75 75 74 74 75 79 82 82 80 78 78 78 78 77 75 72 69 68 71 79 83 77 76 80 80 77 79 80 81 80 77 76 75 75 76 77 77 78 79 80 81 82 83 85 85 84 82
47 47 48 49 51 53 54 56 57 56 56 58 59 59 61 63 65 67 68 68 68 67 68 68 67 68 69 70 71 71 72 75 77 78 76 74 73 73 74 74 74 73 72 71 69 71 77 80 75 75 79 80 78 79 79 77 78 77 75 74 73 73 75 76 77 78 78 79 79 80 82 82 81 80
47 46 46 47 48 50 51 53 53 53 54 55 56 58 59 61 63 64 65 65 64 64 64 64 63 64 65 67 68 69 70 72 72 70 69 68 68 69 71 72 73 74 74 71 68 69 74 77 74 73 77 79 79 79 78 77 78 77 75 73 73 73 74 74 74 74 75 76 76 77 79 79 78 78
46 45 45 46 47 48 49 50 50 51 52 54 56 57 58 59 60 61 61 62 61 61 61 60 60 61 62 63 64 64 65 65 64 64 64 65 66 68 70 71 73 75 73 69 66 68 72 73 71 71 73 76 78 78 77 78 79 77 73 71 72 73 72 72 72 72 72 73 74 76 77 77 75 73
44 44 45 45 46 46 47 48 50 51 52 53 54 54 55 56 57 57 57 57 57 56 56 56 56 57 57 57 58 58 59 60 60 61 63 65 67 68 70 70 71 72 71 67 66 68 69 70 69 68 69 72 74 75 76 77 78 76 71 69 70 71 69 67 69 70 69 70 73 75 75 74 72 68
41 42 43 43 44 45 46 47 47 48 48 49 50 51 52 52 52 51 51 51 50 50 50 51 52 52 52 52 53 54 56 57 59 61 63 65 66 67 68 68 68 69 68 66 66 68 68 67 67 65 64 65 67 71 75 76 76 73 69 67 66 66 65 64 65 66 67 70 72 73 73 72 68 66
37 38 39 40 41 42 42 42 43 43 44 45 46 47 47 47 47 46 46 45 45 46 46 47 47 48 48 49 51 53 55 57 59 61 62 63 65 65 65 65 65 66 65 64 65 66 67 67 65 62 60 59 60 65 69 73 74 71 67 64 61 61 62 62 62 64 66 68 70 71 71 69 65 66
32 33 34 35 36 36 37 37 38 38 39 39 40 40 41 41 42 41 41 42 42 43 43 44 45 46 48 50 52 54 55 56 58 59 60 61 62 62 62 62 63 64 63 62 62 64 66 66 64 61 59 57 58 61 63 67 71 70 65 62 58 58 58 58 60 63 64 65 66 68 68 66 64 66
28 28 29 30 31 32 33 33 34 34 34 35 35 36 36 37 38 38 39 39 40 41 43 44 45 47 48 50 51 53 54 55 56 57 58 58 58 58 59 59 60 61 61 61 61 61 63 63 62 60 58 55 57 58 59 62 66 66 63 60 56 55 54 55 58 62 62 62 62 63 65 64 63 65
26 26 27 28 29 30 31 31 32 32 32 31 32 32 34 34 35 36 37 38 40 41 42 43 45 46 47 49 50 51 52 53 53 54 54 55 56 56 57 57 58 59 61 62 61 60 60 60 59 59 57 54 53 54 56 59 61 61 59 58 56 54 51 52 57 60 60 59 58 59 62 62 61 62
23 24 25 26 27 28 29 29 29 29 29 29 30 31 33 34 35 36 37 38 39 40 41 43 44 45 47 47 48 49 49 50 50 51 52 53 54 55 55 56 57 59 60 60 60 59 59 58 57 57 56 53 51 51 53 56 58 58 56 54 54 54 50 49 55 59 57 56 56 56 58 59 58 59
21 22 23 24 25 25 26 26 26 27 28 29 30 31 32 34 34 35 36 37 38 40 41 42 43 43 44 45 45 46 47 48 49 49 50 52 53 54 55 56 57 57 57 57 58 57 57 56 55 56 56 54 51 49 51 53 54 55 54 51 51 54 50 47 52 57 55 53 54 54 56 56 57 58
20 20 21 22 23 23 24 25 26 27 28 29 30 31 32 33 34 35 36 37 38 39 39 40 40 41 42 42 43 44 45 46 47 48 50 51 53 54 55 56 56 55 54 54 55 55 56 56 54 53 55 55 52 48 48 50 50 52 53 49 47 50 50 47 49 53 53 51 52 53 54 55 56 58
18 19 20 21 22 22 23 24 25 26 27 28 29 30 31 32 33 34 34 35 36 36 37 37 38 39 40 41 42 43 44 46 47 49 50 51 52 53 54 54 55 54 53 52 51 52 53 54 52 51 53 55 54 49 47 47 47 48 50 49 46 46 48 47 47 49 50 50 50 52 53 54 56 57
16 17 18 19 19 20 21 22 23 24 25 26 27 28 29 30 31 31 32 32 33 34 35 36 37 38 39 40 42 43 45 46 48 49 50 51 51 51 52 52 52 53 51 50 48 47 48 49 48 48 50 53 54 51 47 45 44 44 46 48 45 44 45 46 45 46 47 48 49 51 52 53 55 56
13 14 15 16 17 18 19 20 21 22 23 24 25 26 27 28 28 29 30 31 32 32 33 35 36 38 39 41 43 44 46 47 48 48 49 49 50 50 49 49 49 49 49 47 45 43 44 45 45 45 46 49 52 52 48 44 42 42 44 45 44 43 43 43 43 44 45 47 48 49 51 52 53 55
12 13 14 15 16 16 18 18 19 20 22 22 23 24 25 26 27 27 28 29 31 32 33 35 37 38 40 41 43 44 45 46 46 47 48 48 48 47 47 46 45 44 45 45 43 41 41 43 43 43 44 45 46 48 49 45 40 39 41 42 42 41 41 41 42 42 43 45 46 48 49 50 52 53
11 12 13 14 15 15 16 17 18 19 20 21 22 23 24 25 26 27 28 29 31 32 34 36 37 38 40 41 42 43 44 44 45 46 46 46 45 44 43 43 42 41 41 42 41 40 39 40 42 43 43 43 42 43 46 45 41 37 38 40 40 39 39 39 40 41 42 43 45 46 48 49 51 52
10 11 12 13 13 14 15 16 17 18 19 20 21 22 23 25 26 27 29 30 31 33 34 35 36 37 38 40 41 42 42 43 43 43 43 43 42 41 40 40 40 40 40 40 41 41 39 39 40 41 42 41 40 39 41 42 40 37 37 37 37 37 37 37 38 39 40 42 43 45 46 48 50 52
9 10 11 11 12 13 14 15 17 18 19 20 21 23 24 25 26 27 29 29 31 32 33 34 35 36 37 39 39 40 41 41 41 41 40 40 40 39 38 38 38 39 39 39 40 40 40 39 38 40 41 40 38 37 38 38 37 36 35 35 35 35 36 36 37 38 39 41 43 44 45 47 49 51
9 9 10 11 12 14 15 16 18 19 20 21 22 23 24 25 25 26 27 28 29 30 31 32 34 35 36 37 38 39 39 39 39 39 38 38 37 37 36 36 37 37 37 37 37 38 40 39 38 38 39 39 38 36 36 36 34 34 34 34 33 34 34 35 36 37 39 40 42 43 44 46 48 50
9 10 11 13 14 15 16 17 18 19 20 21 21 22 22 23 23 24 25 26 28 29 30 32 33 34 35 36 37 37 38 38 37 37 37 37 36 36 35 35 35 36 36 36 35 36 37 39 38 37 38 38 37 35 35 34 33 32 32 32 32 33 33 34 35 37 38 40 41 43 44 46 47 50
10 11 12 13 14 15 16 17 17 18 18 18 19 19 20 20 22 23 24 26 27 28 29 31 32 33 34 35 36 36 36 37 37 36 36 35 35 35 35 35 35 35 35 35 34 34 35 37 38 37 37 37 36 35 34 33 32 31 31 31 31 32 33 34 35 36 38 39 40 42 44 46 47 50
11 11 12 13 13 14 15 15 15 15 16 16 17 17 18 20 21 23 24 25 26 28 29 30 32 33 34 34 35 35 36 36 36 36 35 35 34 34 35 35 35 34 34 34 34 33 33 34 36 36 36 35 35 34 33 33 31 30 30 30 31 31 32 34 35 36 38 39 40 41 44 46 48 50
10 11 11 12 12 12 12 13 13 13 14 15 16 17 19 20 22 23 24 25 27 28 29 30 31 32 33 34 34 35 35 35 36 35 35 35 34 34 34 34 35 34 33 32 32 33 33 33 33 35 35 34 33 33 33 32 31 30 29 30 30 31 32 34 35 36 38 39 40 41 44 47 49 51
9 9 10 10 10 10 11 11 12 13 14 15 17 18 19 21 22 23 25 26 27 28 29 30 31 32 33 33 34 34 35 35 35 35 35 35 34 33 33 33 34 34 33 31 31 32 33 33 32 33 33 33 32 31 31 31 30 29 29 30 30 31 32 34 35 37 38 39 40 42 45 47 50 52
8 8 9 9 9 10 11 12 13 14 15 17 18 19 20 21 23 24 25 26 28 29 30 31 31 32 33 33 34 34 35 35 35 35 35 34 34 33 33 32 32 33 32 32 31 30 31 32 32 32 32 32 32 31 30 31 30 29 29 29 30 31 33 34 35 37 38 40 41 42 45 48 50 52
Wind_Direction
254 254 253 253 252 252 253 253 253 253 254 254 254 254 254 254 254 254 255 255 256 255 255 255 254 253 253 252 252 252 252 252 252 252 252 252 252 252 253 253 253 253 254 254 255 255 255 256 256 256 256 257 257 258 258 258 258 258 258 258 258 257 257 257 257 257 257 256 255 254 254 253 252 251
253 253 252 252 252 252 252 252 253 253 253 253 253 254 254 254 254 254 255 255 256 256 257 256 256 255 253 252 251 251 252 252 251 251 251 251 251 251 252 252 252 253 253 254 254 255 255 255 256 256 256 257 257 258 258 258 258 258 258 258 258 258 257 257 256 256 256 256 255 254 253 253 252 251
252 252 252 251 251 250 251 251 252 252 253 253 253 253 253 254 254 254 255 255 255 256 257 257 257 256 255 254 253 252 251 252 251 251 251 250 250 251 251 252 252 252 253 253 254 254 255 255 256 256 256 257 257 258 258 258 258 258 258 258 258 258 258 257 257 256 255 255 255 254 253 252 252 251
251 251 251 251 250 250 249 250 251 251 252 252 252 252 253 253 253 254 254 255 255 255 256 257 257 257 257 256 255 254 253 252 252 252 251 251 251 251 251 251 252 252 253 253 254 254 255 255 256 256 257 257 257 257 257 257 257 257 257 257 257 257 257 257 257 256 256 255 254 254 254 253 252 251
251 250 250 249 250 249 249 249 249 250 251 251 252 252 252 252 252 253 253 254 254 255 255 256 257 258 258 257 257 256 255 253 253 253 252 252 252 252 252 252 252 253 253 253 254 254 255 255 256 257 257 257 257 257 257 257 257 256 256 256 256 257 257 258 258 258 257 256 255 254 253 252 251 250
251 251 250 248 248 249 249 248 249 249 250 251 251 251 251 251 251 252 252 253 253 254 255 255 256 257 258 258 257 257 256 255 254 253 253 253 253 253 254 254 254 254 254 254 254 254 255 255 256 256 257 257 257 257 257 257 256 256 255 256 256 257 257 258 258 258 258 257 256 255 253 252 251 249
253 252 251 249 248 248 249 249 248 249 249 250 251 251 251 251 251 251 252 252 252 253 253 254 255 256 257 257 257 257 257 257 255 254 254 254 254 254 255 255 255 255 255 254 254 254 254 255 255 256 256 257 258 258 258 257 256 255 255 256 256 257 258 258 259 258 258 257 256 254 253 252 250 249
254 253 252 251 249 249 249 249 249 249 249 249 250 251 251 251 251 251 251 251 251 251 252 253 254 255 256 257 257 257 257 257 256 255 255 254 255 255 256 256 256 256 256 255 255 255 255 255 256 256 257 258 259 259 258 257 255 255 255 256 258 258 259 259 259 259 258 257 256 255 253 251 250 248
254 254 253 252 251 250 249 249 249 249 249 249 250 250 250 251 251 250 251 251 251 251 251 252 253 254 255 256 256 257 257 257 257 257 256 255 255 255 255 256 256 256 256 256 256 256 256 256 257 258 258 259 259 259 258 256 255 255 256 257 259 260 260 260 260 260 259 258 257 255 253 251 249 247
255 254 253 253 252 251 250 250 249 249 249 249 249 249 250 250 250 250 250 250 251 251 251 251 252 252 254 255 255 256 256 257 257 257 257 257 256 256 256 255 255 256 256 256 256 257 257 258 258 259 259 259 259 258 257 256 256 256 258 259 260 261 261 261 261 261 260 259 257 255 253 251 249 246
254 253 253 252 252 251 251 250 249 248 249 249 249 249 249 249 248 249 249 249 250 250 250 250 250 251 252 253 254 255 256 256 257 257 257 257 257 257 257 256 256 256 256 256 257 258 258 259 259 260 259 259 258 257 255 255 255 257 258 260 261 261 261 261 261 261 260 258 257 255 253 251 249 246
253 252 252 252 251 251 250 249 248 247 247 248 248 248 248 248 248 248 249 249 249 249 249 250 250 250 251 252 253 254 255 255 256 256 257 257 257 257 258 258 258 257 257 257 257 258 259 259 260 260 260 259 257 255 254 254 255 257 259 260 261 261 261 261 261 260 259 258 257 255 254 252 250 248
252 251 250 250 250 250 249 248 248 247 247 247 248 248 247 247 248 248 249 248 248 248 248 249 249 250 250 251 252 253 254 254 255 255 256 256 256 257 258 259 259 259 258 258 259 259 260 260 260 260 261 260 257 255 255 255 256 258 259 260 261 261 261 261 261 260 259 258 257 256 254 252 250 248
252 250 249 248 249 249 249 248 248 247 247 247 247 247 247 247 248 248 249 248 248 247 247 248 248 249 250 251 251 252 253 253 254 254 255 255 255 256 258 259 260 260 259 259 260 261 261 260 261 262 261 259 258 257 258 258 258 258 259 259 260 261 261 261 260 259 258 258 257 256 254 252 250 248
250 249 249 247 247 247 248 248 247 246 245 245 245 245 246 246 247 247 248 247 247 247 247 247 248 249 249 250 251 251 252 252 253 253 254 254 255 256 257 258 259 260 260 260 261 262 262 262 262 262 260 259 259 259 260 260 261 260 260 260 261 261 261 260 260 259 258 257 256 255 253 252 250 248
249 248 248 247 246 245 246 246 245 245 244 243 243 243 243 244 244 245 245 245 245 245 246 247 248 248 249 250 251 251 251 252 252 253 253 254 255 256 256 257 259 260 260 261 261 262 263 263 261 261 260 260 261 261 261 261 262 262 262 262 261 261 260 260 259 258 258 256 255 254 252 251 250 248
247 246 246 246 245 244 245 245 245 244 243 242 242 242 242 242 243 243 243 244 244 244 245 246 247 248 248 250 251 251 251 251 252 252 253 254 255 256 257 258 259 260 260 260 260 262 263 262 260 260 261 262 263 263 263 263 262 262 263 263 263 262 261 260 259 257 256 254 253 253 252 251 251 249
247 244 244 244 245 244 244 244 244 243 242 242 242 242 242 243 243 243 243 244 244 245 246 246 247 247 248 249 250 251 251 251 251 252 253 254 255 256 257 258 259 260 260 259 259 262 263 261 261 262 263 263 264 264 265 264 264 263 263 263 263 263 262 260 258 256 254 253 252 252 252 252 251 249
248 245 243 243 243 243 242 242 243 243 243 244 244 243 243 244 244 244 244 245 245 246 247 247 247 247 247 248 249 250 251 250 251 252 253 255 256 257 258 259 260 260 260 259 258 259 261 262 263 264 265 265 265 265 265 266 266 265 264 263 262 261 261 259 258 256 254 253 252 252 252 252 251 250
248 246 244 242 243 243 242 242 242 242 243 243 244 244 244 244 244 245 245 246 246 247 247 247 247 247 248 248 249 249 249 249 250 252 254 256 257 258 259 260 260 260 259 257 256 258 260 262 264 265 267 268 268 268 267 267 268 267 265 264 263 262 260 259 257 256 255 254 253 252 252 251 250 250
249 248 245 243 242 242 242 242 242 241 240 241 242 242 242 243 244 245 246 247 248 248 248 248 248 248 248 248 248 248 248 250 252 254 255 257 258 259 259 260 260 259 258 257 257 258 260 262 264 265 267 269 270 270 271 270 268 266 264 264 263 262 261 259 257 256 256 255 254 253 252 251 249 248
249 248 247 245 243 242 242 241 241 239 239 239 239 240 241 242 244 245 247 248 248 249 248 248 248 248 248 248 249 249 250 252 254 255 256 256 257 257 258 258 258 258 259 259 260 260 260 261 262 263 265 268 270 270 270 269 267 265 263 263 263 261 260 259 258 257 255 255 254 253 252 251 249 248
246 246 246 245 244 243 242 242 240 239 239 239 240 242 243 244 245 247 248 248 248 248 248 248 248 249 249 250 251 251 252 253 254 254 254 254 255 255 256 256 257 259 261 262 262 261 261 262 262 263 264 267 270 270 269 266 265 264 263 262 262 261 259 258 257 257 255 253 252 251 251 250 249 247
243 244 245 245 245 244 243 242 242 242 241 241 241 243 244 245 247 248 249 249 249 248 248 248 248 249 250 250 250 250 250 250 251 251 252 252 253 254 255 257 258 260 262 264 264 264 264 263 263 264 264 264 266 268 268 266 265 264 263 261 261 261 260 259 257 255 253 251 251 250 250 249 247 244
243 244 244 244 244 244 243 243 242 241 240 240 240 241 243 245 247 248 249 249 248 248 248 247 248 248 247 247 246 246 246 247 248 249 250 251 253 255 257 258 260 261 262 263 264 266 268 268 268 266 265 263 263 264 266 268 267 265 263 262 261 260 259 258 257 255 252 250 250 249 249 249 245 241
245 244 244 244 244 244 243 242 241 240 239 239 240 241 243 245 246 247 247 246 245 245 244 244 244 243 243 243 243 244 245 246 247 248 250 252 254 256 258 260 261 263 263 264 265 267 269 271 270 269 267 265 264 263 264 266 267 266 265 263 262 260 258 257 256 254 251 250 249 249 249 247 243 240
243 243 242 242 242 241 240 239 237 237 237 238 239 240 241 242 242 242 241 241 240 240 240 240 240 240 241 242 243 244 245 246 248 250 252 254 256 258 260 261 263 265 267 268 269 269 270 271 271 270 268 266 266 266 265 265 266 266 266 265 262 260 258 257 256 254 251 250 249 247 247 245 241 239
240 239 238 238 237 236 235 234 233 233 234 235 237 238 238 238 237 237 237 236 236 237 237 238 238 239 240 242 243 244 246 248 251 253 255 257 258 260 261 263 265 268 270 271 272 272 272 272 272 271 269 267 266 267 267 266 266 266 267 267 265 260 257 256 255 253 250 249 248 245 244 243 239 238
238 236 235 235 234 233 232 231 232 232 232 233 233 233 233 233 232 233 234 234 234 235 236 236 238 239 241 243 245 248 250 252 253 255 257 259 261 262 264 266 268 269 271 272 273 273 273 273 273 272 271 269 267 268 268 268 268 267 266 266 266 262 256 253 253 252 249 248 246 244 243 241 238 235
235 233 232 231 230 229 229 228 228 228 228 228 229 228 229 229 230 231 232 232 233 235 236 238 240 242 245 247 249 251 252 254 255 257 259 261 263 265 267 269 270 270 271 273 274 274 274 273 273 274 273 271 269 268 268 269 269 268 266 265 264 263 257 251 250 251 248 246 244 242 240 238 235 232
230 227 227 226 225 224 223 223 222 223 224 224 225 226 227 228 229 230 232 234 236 238 240 242 244 246 248 249 251 253 254 256 258 260 262 264 266 268 269 270 271 271 271 272 273 273 274 274 273 274 274 274 271 269 268 269 269 268 267 263 261 260 257 251 248 249 247 244 242 240 238 235 232 230
225 223 223 222 222 221 221 221 221 221 222 223 225 226 228 229 231 233 235 237 239 241 243 245 247 248 250 251 253 255 257 259 261 263 264 265 267 268 269 270 270 270 269 268 268 269 271 272 273 273 274 275 274 272 270 269 268 267 266 264 259 257 256 252 247 246 245 243 240 238 235 233 230 228
224 222 221 220 221 221 221 221 222 223 224 226 227 229 231 233 234 236 238 240 242 244 246 247 249 251 253 255 257 259 260 262 263 265 266 266 267 267 267 267 268 268 267 266 264 262 263 266 268 271 273 275 276 275 272 269 268 265 264 263 259 255 253 251 247 244 242 240 237 235 233 231 228 226
223 221 219 219 219 220 222 222 224 225 227 229 230 232 234 235 237 239 241 242 245 247 249 251 253 255 256 258 260 261 263 264 265 265 266 267 267 267 267 267 267 267 268 267 265 261 259 260 261 264 268 272 275 276 274 270 267 265 262 261 258 255 252 249 246 243 240 237 235 233 231 229 227 224
219 219 219 219 219 221 222 224 225 227 228 230 232 234 236 238 240 242 244 246 249 251 253 255 256 258 259 261 262 263 264 265 266 266 267 267 267 267 268 267 267 268 268 269 267 265 264 264 263 262 264 267 270 273 274 271 266 262 261 259 257 254 250 247 244 241 238 235 233 231 229 227 225 222
215 217 218 219 219 221 223 225 226 229 231 233 235 237 239 242 244 246 249 251 253 255 257 258 259 260 261 262 263 264 264 265 266 266 267 268 269 269 270 270 270 270 270 270 269 267 266 267 268 268 267 266 265 266 269 270 267 262 260 258 255 253 249 246 242 239 236 233 231 229 227 225 223 220
215 217 219 221 221 223 226 229 231 234 236 238 240 243 245 247 250 252 254 256 257 258 259 260 261 262 262 263 264 264 265 265 266 267 268 269 270 271 272 273 273 273 272 272 272 271 269 268 269 270 270 269 267 265 265 266 265 262 259 256 254 251 248 244 241 237 234 231 229 227 225 223 221 218
220 223 226 227 229 231 234 237 239 241 243 246 248 250 251 253 255 256 257 258 259 260 261 261 262 263 263 264 264 265 266 267 269 270 270 271 272 272 273 273 273 273 272 272 272 273 272 271 271 272 272 271 270 268 266 264 262 260 258 255 252 250 247 243 239 236 232 229 227 225 223 221 219 216
229 233 236 238 239 241 243 245 247 249 250 252 253 254 255 256 257 258 259 260 260 261 262 263 264 264 265 266 267 269 270 271 272 273 273 273 273 273 273 273 272 271 270 269 269 270 272 272 272 272 273 272 271 270 267 264 261 259 257 254 251 248 245 241 237 234 230 227 225 223 221 219 217 214
238 241 242 244 246 247 249 250 252 253 254 255 256 256 257 258 259 260 261 262 263 263 264 265 266 268 269 270 272 273 274 275 275 275 276 276 276 276 275 274 273 271 269 268 267 267 270 272 272 272 273 273 272 270 267 264 260 258 255 252 249 246 242 238 235 231 228 225 224 221 219 216 214 212
243 245 246 249 250 252 254 254 255 256 257 258 259 260 262 263 264 265 265 266 266 267 268 269 271 272 273 274 275 276 276 277 277 277 278 278 278 278 277 275 273 272 270 268 267 265 266 269 271 271 271 272 272 270 267 263 260 257 254 251 247 244 240 236 233 229 226 223 222 220 217 214 211 210
248 250 252 253 255 256 258 259 260 262 264 266 268 269 269 269 270 270 270 271 272 273 274 274 275 276 276 277 278 278 279 280 280 280 280 280 279 278 277 276 274 272 270 269 268 266 264 266 268 270 269 270 270 268 265 262 259 255 252 249 245 241 238 234 230 227 224 221 219 218 216 213 209 208
255 257 257 259 261 263 265 268 271 274 276 277 277 276 275 275 275 275 276 276 277 277 277 277 278 278 279 280 280 281 281 282 282 282 282 281 280 278 277 276 275 273 271 270 269 268 265 264 266 268 269 268 268 266 264 261 258 254 250 247 243 239 235 232 229 225 223 220 217 216 214 211 208 206
262 265 267 270 274 277 281 284 286 286 286 284 283 282 281 281 281 281 281 281 280 280 280 281 281 281 282 282 282 283 283 283 283 283 282 282 280 279 277 275 275 274 272 269 268 269 268 266 265 266 267 268 267 265 262 259 256 252 248 245 241 237 233 231 227 224 221 218 215 213 213 210 207 205
276 281 286 291 294 297 298 297 295 293 291 290 288 287 287 286 285 284 284 284 284 283 284 284 284 284 284 285 285 285 285 284 284 284 283 282 281 279 277 276 274 273 272 270 267 266 267 267 266 265 265 266 266 264 260 257 255 251 246 243 239 234 231 229 226 223 220 217 213 211 210 209 206 204